DELTA 1 DEB, 7069

Orbit data source: Space-Track

DELTA 1 DEB, 7069 is space debris in SSO originally from a launch on Tue, 06 Nov 1973 UTC launched from the Air Force Western Test Range (AFWTR). Debris objects in space refer to the collection of defunct objects orbiting the Earth. Examples of debris include non-operational satellites, rocket bodies, and fragments generated from explosions, collisions, or faulty payload assembly.

Loading next visibility...
Identifier
7069, 1973-086BM
Orbit
SSO
Country
Flag of USUS
Related business
Manufacturer
Unknown
Mission
Spacecraft
Bus & Motor
Unknown
Mass
Unknown
Launch date (UTC)
1973-11-06 (53 years ago)
Launch vehicle
Unknown
Launch site
Air Force Western Test Range (AFWTR)
Object type
Payload
Rocket body
Debris
Shape & HBR
Unknown shape, 0.1 m
Radar Cross Section
Medium (>0.1 m² and <1 m²)

Expand to show TLE details & history
Last TLE update: 8 hours ago

TLE from 8 hours ago
0 DELTA 1 DEB
1 07069U 73086BM  26264.48594225  .00001177  00000-0  13263-2 0  9998
2 07069 102.7774 335.8708 0247633 162.7846 198.1870 13.61546381575464
Epoch: 2026-09-21T11:39Z
TLE epoch observation values (Epoch: 2026-09-21T11:39:45.410Z)
Latitude
0.00002°
Longitude
160.5665°
Altitude
1,207.504 km
Speed
7.164 km/s
True Right ascension
22h 23m 28s
True Declination
0° 00' 00"
Sunlit
Object was in full shadow at epoch
Visualization orbit readout
Latitude
Unknown
Longitude
Unknown
Altitude
Unknown
Speed
Unknown
Apparent Right ascension
Unknown
Apparent Declination
Unknown
Sunlit
N/A
Visualization observer readout
Local Sidereal Time
12:52:26
Azimuth
Unknown
Elevation
Unknown
Doppler factor
Unknown
Orbital elements
Apogee altitude
1,210.933 km
Perigee altitude
844.155 km
Semi-major axis
7,405.681 km
Eccentricity
0.02476
Inclination
102.7774°
RAAN
335.8708°
Arg. of periapsis
162.7846°
True anomaly
197.32667°
Mean anomaly
198.187°
Eccentric anomaly
197.75435°
Mean motion
3.40562 °/min
Orbital period
105.71 mins
BSTAR
0.0013263
Loading maneuver chart data...
Computing Atmospheric mass density...

Documentation

Showing up to 5 results
|